Download List

Project Description

Waterfox is a high performance browser based on the Mozilla Firefox source code. Made specifically for 64-Bit systems, Waterfox has one thing in mind: speed.

PLEASE CHECK THE WATERFOX WEBSITE BEFORE YOU DOWNLOAD FROM HERE. IT CONTAINS IMPORTANT INFORMATION YOU SHOULD KNOW.

System Requirements

System requirement is not defined

Download Package list

Latest 5 files
Name Size Date Download count
Waterfox 38.0 Setup.exe 64.7 MB 2015-05-12 22:25 1614
WaterfoxPortable_38.0.0_English.paf.exe 67.1 MB 2015-05-12 22:17 129
Waterfox 36.0 Setup.dmg 56.9 MB 2015-03-02 10:19 211
WaterfoxPortable_36.0.0_English.paf.exe 58.4 MB 2015-03-01 03:41 71
Waterfox 36.0 Setup.exe 58.8 MB 2015-03-01 03:40 317
All Files
Waterfox 38.0 Setup.exe64.7 MB2015-05-12 22:251614
WaterfoxPortable_38.0.0_English.paf.exe67.1 MB2015-05-12 22:17129
Waterfox 36.0 Setup.dmg56.9 MB2015-03-02 10:19211
WaterfoxPortable_36.0.0_English.paf.exe58.4 MB2015-03-01 03:4171
Waterfox 36.0 Setup.exe58.8 MB2015-03-01 03:40317
WaterfoxPortable_35.0.1_English.paf.exe59.7 MB2015-02-14 22:0947
Waterfox 35.0.1 Setup.exe57.5 MB2015-02-10 07:53269
Waterfox 34.0.1 Setup.exe57.3 MB2014-12-18 04:19325
Waterfox 34.0 Setup.exe57.4 MB2014-12-15 00:28108
Waterfox 34.0 SetupSigned.mpkg.zip56.8 MB2014-12-13 10:1832
Waterfox 32.0.3 Setup.exe45.5 MB2014-10-08 10:54383
update
waterfox
waterfox-32.0.3.en-US.win64.complete.mar59.0 MB2014-10-08 10:5354
waterfox-32.0.en-US.win64.complete.mar59.0 MB2014-09-06 00:4831
waterfox-31.0.en-US.win64.complete.mar56.2 MB2014-07-29 01:03104
waterfox-30.0.en-US.win64.complete.mar48.0 MB2014-07-09 22:3014
waterfox-28.0.en-US.win64.complete.mar42.2 MB2014-04-08 00:22130
waterfox-27.0.2.en-US.win64.complete.mar35.5 MB2014-03-05 22:2021
waterfox-26.0.en-US.win64.complete.mar35.5 MB2013-12-29 23:5536
waterfox-25.0.en-US.win64-x86_64.complete.mar31.1 MB2013-11-13 05:19128
language
32.0
pt-PT.xpi373.9 KB2014-09-08 18:178
rm.xpi387.8 KB2014-09-08 18:171
ro.xpi427.6 KB2014-09-08 18:176
ru.xpi354.8 KB2014-09-08 18:1719
si.xpi451.1 KB2014-09-08 18:178
sk.xpi400.9 KB2014-09-08 18:172
sl.xpi375.2 KB2014-09-08 18:173
son.xpi382.2 KB2014-09-08 18:172
sq.xpi418.1 KB2014-09-08 18:172
sr.xpi413.1 KB2014-09-08 18:175
sv-SE.xpi386.3 KB2014-09-08 18:1711
ta.xpi440.2 KB2014-09-08 18:173
te.xpi456.6 KB2014-09-08 18:174
th.xpi467.9 KB2014-09-08 18:175
tr.xpi404.4 KB2014-09-08 18:1711
uk.xpi417.4 KB2014-09-08 18:176
vi.xpi400.5 KB2014-09-08 18:176
xh.xpi387.5 KB2014-09-08 18:177
zh-CN.xpi406.8 KB2014-09-08 18:1729
zh-TW.xpi400.0 KB2014-09-08 18:1719
zu.xpi421.5 KB2014-09-08 18:1747
id.xpi366.1 KB2014-09-08 18:177
is.xpi413.7 KB2014-09-08 18:176
it.xpi317.4 KB2014-09-08 18:179
ja.xpi408.4 KB2014-09-08 18:171808
kk.xpi426.7 KB2014-09-08 18:174
km.xpi499.0 KB2014-09-08 18:174
kn.xpi452.1 KB2014-09-08 18:172
ko.xpi390.3 KB2014-09-08 18:175
ku.xpi408.9 KB2014-09-08 18:171
lij.xpi374.6 KB2014-09-08 18:174
lt.xpi421.9 KB2014-09-08 18:176
lv.xpi385.3 KB2014-09-08 18:177
mai.xpi436.1 KB2014-09-08 18:173
mk.xpi463.0 KB2014-09-08 18:171
ml.xpi460.6 KB2014-09-08 18:173
mr.xpi444.4 KB2014-09-08 18:174
ms.xpi424.4 KB2014-09-08 18:174
nb-NO.xpi379.6 KB2014-09-08 18:175
nl.xpi378.4 KB2014-09-08 18:1718
nn-NO.xpi376.1 KB2014-09-08 18:171
or.xpi455.5 KB2014-09-08 18:175
pa-IN.xpi429.3 KB2014-09-08 18:172
pl.xpi359.6 KB2014-09-08 18:17119
pt-BR.xpi393.2 KB2014-09-08 18:176
et.xpi378.0 KB2014-09-08 18:170
eu.xpi399.8 KB2014-09-08 18:173
fa.xpi448.4 KB2014-09-08 18:175
ff.xpi388.1 KB2014-09-08 18:174
fi.xpi380.0 KB2014-09-08 18:173
fr.xpi393.9 KB2014-09-08 18:1717
fy-NL.xpi389.4 KB2014-09-08 18:172
ga-IE.xpi399.0 KB2014-09-08 18:170
gd.xpi389.9 KB2014-09-08 18:171
gl.xpi379.3 KB2014-09-08 18:176
gu-IN.xpi417.9 KB2014-09-08 18:172
he.xpi415.7 KB2014-09-08 18:173
hi-IN.xpi433.3 KB2014-09-08 18:172
hr.xpi413.0 KB2014-09-08 18:175
hsb.xpi400.3 KB2014-09-08 18:171
hu.xpi386.0 KB2014-09-08 18:177
hy-AM.xpi466.5 KB2014-09-08 18:173
da.xpi385.2 KB2014-09-08 18:174
de.xpi382.9 KB2014-09-08 18:17208
dsb.xpi402.2 KB2014-09-08 18:176
el.xpi431.0 KB2014-09-08 18:175
en-GB.xpi378.2 KB2014-09-08 18:1715
en-US.xpi409.7 KB2014-09-08 18:1790
en-ZA.xpi377.8 KB2014-09-08 18:174
eo.xpi418.3 KB2014-09-08 18:171
es-AR.xpi387.8 KB2014-09-08 18:1714
es-CL.xpi329.7 KB2014-09-08 18:174
es-ES.xpi322.7 KB2014-09-08 18:176
es-MX.xpi390.3 KB2014-09-08 18:1720
cy.xpi378.0 KB2014-09-08 18:171
csb.xpi372.4 KB2014-09-08 18:176
cs.xpi378.5 KB2014-09-08 18:1778
ca.xpi391.1 KB2014-09-08 18:175
bs.xpi417.2 KB2014-09-08 18:173
br.xpi377.0 KB2014-09-08 18:176
bn-IN.xpi454.7 KB2014-09-08 18:172
bn-BD.xpi466.3 KB2014-09-08 18:176
bg.xpi426.2 KB2014-09-08 18:1719
be.xpi369.5 KB2014-09-08 18:174
ast.xpi333.9 KB2014-09-08 18:171
as.xpi440.6 KB2014-09-08 18:173
ar.xpi447.1 KB2014-09-08 18:174
an.xpi394.4 KB2014-09-08 18:171
af.xpi419.8 KB2014-09-08 18:171
ach.xpi415.5 KB2014-09-08 18:173
31.0
sw.xpi396.4 KB2014-07-29 00:491
ta.xpi420.2 KB2014-07-29 00:491
te.xpi435.8 KB2014-07-29 00:490
th.xpi435.4 KB2014-07-29 00:492
tr.xpi372.7 KB2014-07-29 00:494
uk.xpi395.7 KB2014-07-29 00:492
vi.xpi381.3 KB2014-07-29 00:494
xh.xpi366.8 KB2014-07-29 00:495
zh-CN.xpi386.9 KB2014-07-29 00:49136
zh-TW.xpi380.2 KB2014-07-29 00:497
zu.xpi389.2 KB2014-07-29 00:4915
nn-NO.xpi358.4 KB2014-07-29 00:493
or.xpi436.1 KB2014-07-29 00:491
pa-IN.xpi410.4 KB2014-07-29 00:497
pl.xpi342.6 KB2014-07-29 00:4910
pt-BR.xpi373.5 KB2014-07-29 00:498
pt-PT.xpi354.8 KB2014-07-29 00:496
rm.xpi367.0 KB2014-07-29 00:490
ro.xpi394.2 KB2014-07-29 00:496
ru.xpi336.8 KB2014-07-29 00:4921
si.xpi420.4 KB2014-07-29 00:491
sk.xpi369.1 KB2014-07-29 00:495
sl.xpi355.0 KB2014-07-29 00:494
son.xpi362.9 KB2014-07-29 00:493
sq.xpi387.2 KB2014-07-29 00:491
sr.xpi393.9 KB2014-07-29 00:496
sv-SE.xpi367.0 KB2014-07-29 00:493
ja.xpi397.5 KB2014-07-29 00:49129
kk.xpi406.7 KB2014-07-29 00:493
km.xpi467.2 KB2014-07-29 00:493
kn.xpi431.7 KB2014-07-29 00:496
ko.xpi370.1 KB2014-07-29 00:495
ku.xpi393.8 KB2014-07-29 00:495
lij.xpi353.5 KB2014-07-29 00:496
lt.xpi390.5 KB2014-07-29 00:495
lv.xpi366.2 KB2014-07-29 00:492
mai.xpi415.9 KB2014-07-29 00:491
mk.xpi430.7 KB2014-07-29 00:490
ml.xpi440.3 KB2014-07-29 00:491
mr.xpi423.0 KB2014-07-29 00:491
ms.xpi391.1 KB2014-07-29 00:494
nb-NO.xpi360.1 KB2014-07-29 00:494
nl.xpi358.8 KB2014-07-29 00:496
fi.xpi360.5 KB2014-07-29 00:483
fr.xpi373.8 KB2014-07-29 00:4818
fy-NL.xpi369.9 KB2014-07-29 00:487
ga-IE.xpi377.5 KB2014-07-29 00:4814
gd.xpi370.4 KB2014-07-29 00:482
gl.xpi358.6 KB2014-07-29 00:480
gu-IN.xpi395.8 KB2014-07-29 00:483
he.xpi395.1 KB2014-07-29 00:484
hi-IN.xpi412.9 KB2014-07-29 00:481
hr.xpi391.3 KB2014-07-29 00:483
hsb.xpi380.4 KB2014-07-29 00:484
hu.xpi366.1 KB2014-07-29 00:4821
hy-AM.xpi434.7 KB2014-07-29 00:482
id.xpi346.4 KB2014-07-29 00:485
is.xpi382.1 KB2014-07-29 00:482
it.xpi299.4 KB2014-07-29 00:484
csb.xpi351.3 KB2014-07-29 00:482
cs.xpi358.6 KB2014-07-29 00:488
cy.xpi358.3 KB2014-07-29 00:484
da.xpi353.6 KB2014-07-29 00:483
de.xpi362.8 KB2014-07-29 00:48282
el.xpi410.2 KB2014-07-29 00:487
en-GB.xpi358.1 KB2014-07-29 00:4811
en-US.xpi378.3 KB2014-07-29 00:489
en-ZA.xpi356.7 KB2014-07-29 00:481
eo.xpi386.7 KB2014-07-29 00:482
es-AR.xpi368.0 KB2014-07-29 00:486
es-CL.xpi311.6 KB2014-07-29 00:483
es-ES.xpi304.8 KB2014-07-29 00:485
es-MX.xpi370.9 KB2014-07-29 00:483
et.xpi346.4 KB2014-07-29 00:483
eu.xpi380.1 KB2014-07-29 00:484
fa.xpi427.9 KB2014-07-29 00:487
ff.xpi368.4 KB2014-07-29 00:482
be.xpi347.1 KB2014-07-29 00:480
bg.xpi406.4 KB2014-07-29 00:486
bn-BD.xpi445.6 KB2014-07-29 00:483
bn-IN.xpi434.7 KB2014-07-29 00:485
br.xpi357.4 KB2014-07-29 00:483
bs.xpi384.3 KB2014-07-29 00:482
ca.xpi371.2 KB2014-07-29 00:489
ast.xpi320.7 KB2014-07-29 00:482
as.xpi420.5 KB2014-07-29 00:481
ar.xpi415.5 KB2014-07-29 00:485
an.xpi374.6 KB2014-07-29 00:485
af.xpi387.1 KB2014-07-29 00:484
ach.xpi400.4 KB2014-07-29 00:482
30.0
sq.xpi361.3 KB2014-07-07 18:594
sr.xpi400.2 KB2014-07-07 18:591
sv-SE.xpi355.6 KB2014-07-07 18:590
ta.xpi412.0 KB2014-07-07 18:592
te.xpi422.6 KB2014-07-07 18:593
th.xpi404.0 KB2014-07-07 18:591
tr.xpi356.5 KB2014-07-07 18:595
uk.xpi387.6 KB2014-07-07 18:594
vi.xpi374.3 KB2014-07-07 18:599
xh.xpi352.0 KB2014-07-07 18:593
zh-CN.xpi376.2 KB2014-07-07 18:594
zh-TW.xpi373.2 KB2014-07-07 18:594
zu.xpi361.8 KB2014-07-07 18:592
mr.xpi400.5 KB2014-07-07 18:593
ms.xpi355.7 KB2014-07-07 18:591
nb-NO.xpi350.1 KB2014-07-07 18:593
nl.xpi348.5 KB2014-07-07 18:593
nn-NO.xpi347.4 KB2014-07-07 18:595
or.xpi418.8 KB2014-07-07 18:597
pa-IN.xpi395.3 KB2014-07-07 18:593
pl.xpi339.6 KB2014-07-07 18:591
pt-BR.xpi359.4 KB2014-07-07 18:5996
pt-PT.xpi347.2 KB2014-07-07 18:597
rm.xpi356.5 KB2014-07-07 18:594
ro.xpi384.7 KB2014-07-07 18:593
ru.xpi332.5 KB2014-07-07 18:592
si.xpi392.9 KB2014-07-07 18:595
sk.xpi362.4 KB2014-07-07 18:595
sl.xpi344.9 KB2014-07-07 18:595
son.xpi346.7 KB2014-07-07 18:591
hy-AM.xpi407.2 KB2014-07-07 18:593
id.xpi339.8 KB2014-07-07 18:593
is.xpi351.4 KB2014-07-07 18:593
it.xpi291.6 KB2014-07-07 18:594
ja.xpi390.3 KB2014-07-07 18:5942
kk.xpi395.7 KB2014-07-07 18:592
km.xpi432.1 KB2014-07-07 18:591
kn.xpi414.8 KB2014-07-07 18:593
ko.xpi360.3 KB2014-07-07 18:591
ku.xpi366.5 KB2014-07-07 18:591
lij.xpi342.0 KB2014-07-07 18:592
lt.xpi369.5 KB2014-07-07 18:595
lv.xpi345.2 KB2014-07-07 18:592
mai.xpi401.4 KB2014-07-07 18:594
mk.xpi399.3 KB2014-07-07 18:591
ml.xpi425.1 KB2014-07-07 18:591
es-ES.xpi293.6 KB2014-07-07 18:596
es-MX.xpi359.9 KB2014-07-07 18:594
et.xpi339.9 KB2014-07-07 18:590
eu.xpi355.2 KB2014-07-07 18:594
fa.xpi396.6 KB2014-07-07 18:594
ff.xpi357.2 KB2014-07-07 18:594
fi.xpi350.2 KB2014-07-07 18:591
fr.xpi362.9 KB2014-07-07 18:5911
fy-NL.xpi359.4 KB2014-07-07 18:593
ga-IE.xpi366.9 KB2014-07-07 18:590
gd.xpi363.8 KB2014-07-07 18:593
gl.xpi351.7 KB2014-07-07 18:590
gu-IN.xpi384.6 KB2014-07-07 18:593
he.xpi373.5 KB2014-07-07 18:596
hi-IN.xpi402.0 KB2014-07-07 18:5910
hr.xpi362.7 KB2014-07-07 18:594
hu.xpi359.5 KB2014-07-07 18:594
bs.xpi359.2 KB2014-07-07 18:591
ca.xpi357.5 KB2014-07-07 18:591
csb.xpi344.1 KB2014-07-07 18:593
cs.xpi351.8 KB2014-07-07 18:591
cy.xpi351.7 KB2014-07-07 18:591
da.xpi342.9 KB2014-07-07 18:597
de.xpi351.9 KB2014-07-07 18:59282
el.xpi384.7 KB2014-07-07 18:597
en-GB.xpi340.0 KB2014-07-07 18:593
en-US.xpi339.9 KB2014-07-07 18:5911
en-ZA.xpi331.7 KB2014-07-07 18:591
eo.xpi355.8 KB2014-07-07 18:594
es-AR.xpi354.9 KB2014-07-07 18:596
es-CL.xpi302.3 KB2014-07-07 18:592
br.xpi351.0 KB2014-07-07 18:594
bn-IN.xpi417.0 KB2014-07-07 18:591
bn-BD.xpi420.0 KB2014-07-07 18:592
be.xpi328.5 KB2014-07-07 18:591
bg.xpi392.9 KB2014-07-07 18:595
ast.xpi308.6 KB2014-07-07 18:592
as.xpi407.0 KB2014-07-07 18:594
ar.xpi384.4 KB2014-07-07 18:591
an.xpi360.6 KB2014-07-07 18:591
af.xpi355.9 KB2014-07-07 18:593
ach.xpi361.2 KB2014-07-07 18:593
Waterfox 32 Setup.exe45.6 MB2014-09-06 00:18277
Waterfox 30.0 Setup.exe36.5 MB2014-07-09 22:28113
Waterfox 28.032.4 MB2014-04-08 00:152545
Waterfox 27.0.2 Setup.exe28.8 MB2014-03-05 22:31688
Waterfox 27.0.1 Setup.exe28.8 MB2014-02-21 20:29323
experimental
Waterfox 27.0.1 Setup.exe28.8 MB2014-02-20 07:0511
Waterfox 27.0 Test.zip33.5 MB2014-02-14 05:4430
SpiderMonkey 24-b5 ICC.zip22.9 MB2013-09-18 01:4725
Waterfox 24 Preview 1.7z27.0 MB2013-09-12 00:36122
portable
Waterfox 26.0 Portable.zip44.6 MB2013-12-26 22:15611
Waterfox 18.0.1 Portable.zip39.4 MB2013-01-20 08:13224
Waterfox 26.0 Setup.exe32.9 MB2013-12-26 22:11653
Waterfox 24.0 Setup.exe24.6 MB2013-10-07 19:151275